• In Hungary
  • List of Countries
  • For 7 days
  • Water Temperature
  • Satellite Maps
  • Weather Map
  • News
  • Weather Widgets
  • user-avatar
    Login

    Hourly Weather Czyzowice

    Today, 22 October, Sunday

    Time Temperature Precipitation Wind Pressure Humidity
    00:00 +10°C° 0 mm 1 mps 738 mmHg 88%
    01:00 +9°C° 0 mm 1 mps 738 mmHg 88%
    02:00 +9°C° 0 mm 1 mps 738 mmHg 88%
    03:00 +8°C° 0 mm 2 mps 737 mmHg 88%
    04:00 +8°C° 0 mm 2 mps 737 mmHg 88%
    05:00 +8°C° 0.1 mm 2 mps 737 mmHg 87%
    06:00 +8°C° 0.1 mm 2 mps 737 mmHg 85%
    07:00 +9°C° 0.1 mm 2 mps 737 mmHg 84%
    08:00 +9°C° 1.7 mm 2 mps 737 mmHg 85%
    09:00 +10°C° 1.7 mm 2 mps 737 mmHg 86%
    10:00 +10°C° 1.7 mm 2 mps 737 mmHg 87%
    11:00 +10°C° 0.9 mm 2 mps 737 mmHg 89%
    12:00 +10°C° 0.9 mm 2 mps 737 mmHg 90%
    13:00 +10°C° 0.9 mm 2 mps 737 mmHg 92%
    14:00 +10°C° 0.2 mm 2 mps 736 mmHg 92%
    15:00 +11°C° 0.2 mm 1 mps 736 mmHg 92%
    16:00 +11°C° 0.2 mm 1 mps 736 mmHg 91%
    17:00 +11°C° 0.2 mm 1 mps 736 mmHg 92%
    18:00 +10°C° 0.2 mm 1 mps 736 mmHg 92%
    19:00 +10°C° 0.2 mm 1 mps 736 mmHg 93%
    20:00 +10°C° 0.2 mm 1 mps 736 mmHg 93%
    21:00 +10°C° 0.2 mm 1 mps 736 mmHg 92%
    22:00 +10°C° 0.2 mm 1 mps 736 mmHg 92%
    23:00 +10°C° 0.3 mm 1 mps 736 mmHg 92%

    Tomorrow, 23 October, Monday

    Time Temperature Precipitation Wind Pressure Humidity
    00:00 +9°C° 0.3 mm 2 mps 736 mmHg 92%
    01:00 +9°C° 0.3 mm 2 mps 736 mmHg 92%
    02:00 +9°C° 0.2 mm 2 mps 736 mmHg 91%
    03:00 +8°C° 0.2 mm 2 mps 736 mmHg 91%
    04:00 +8°C° 0.2 mm 2 mps 735 mmHg 90%
    05:00 +8°C° 0.1 mm 2 mps 736 mmHg 90%
    06:00 +8°C° 0.1 mm 2 mps 736 mmHg 90%
    07:00 +8°C° 0.1 mm 2 mps 736 mmHg 90%
    08:00 +8°C° 0.1 mm 2 mps 736 mmHg 88%
    09:00 +8°C° 0.1 mm 3 mps 736 mmHg 86%
    10:00 +8°C° 0.1 mm 4 mps 736 mmHg 84%
    11:00 +8°C° 0.2 mm 4 mps 736 mmHg 84%
    12:00 +8°C° 0.2 mm 4 mps 736 mmHg 84%
    13:00 +8°C° 0.2 mm 4 mps 736 mmHg 85%
    14:00 +8°C° 0.2 mm 4 mps 736 mmHg 86%
    15:00 +8°C° 0.2 mm 4 mps 736 mmHg 86%
    16:00 +8°C° 0.2 mm 4 mps 736 mmHg 87%
    17:00 +8°C° 0.2 mm 4 mps 737 mmHg 88%
    18:00 +8°C° 0.2 mm 4 mps 737 mmHg 88%
    19:00 +7°C° 0.2 mm 4 mps 737 mmHg 89%
    20:00 +7°C° 0.3 mm 4 mps 738 mmHg 89%
    21:00 +7°C° 0.3 mm 5 mps 738 mmHg 90%
    22:00 +7°C° 0.3 mm 5 mps 738 mmHg 90%
    23:00 +7°C° 0.2 mm 5 mps 738 mmHg 90%

    Day after tomorrow, 24 October, Tuesday

    Time Temperature Precipitation Wind Pressure Humidity
    00:00 +7°C° 0.2 mm 5 mps 739 mmHg 91%
    01:00 +7°C° 0.2 mm 5 mps 739 mmHg 91%
    02:00 +7°C° 0.2 mm 4 mps 739 mmHg 92%
    03:00 +6°C° 0.2 mm 4 mps 740 mmHg 92%
    04:00 +6°C° 0.2 mm 4 mps 740 mmHg 92%
    05:00 +6°C° 0.1 mm 4 mps 740 mmHg 92%
    06:00 +6°C° 0.1 mm 4 mps 741 mmHg 93%
    07:00 +6°C° 0.1 mm 4 mps 741 mmHg 93%
    08:00 +7°C° 0 mm 4 mps 742 mmHg 91%
    09:00 +8°C° 0 mm 3 mps 742 mmHg 89%
    10:00 +8°C° 0 mm 3 mps 743 mmHg 87%
    11:00 +9°C° 0 mm 3 mps 743 mmHg 84%
    12:00 +9°C° 0 mm 3 mps 743 mmHg 82%
    13:00 +10°C° 0 mm 3 mps 743 mmHg 79%
    14:00 +10°C° 0 mm 3 mps 743 mmHg 80%
    15:00 +10°C° 0 mm 2 mps 744 mmHg 81%
    16:00 +9°C° 0 mm 2 mps 744 mmHg 82%
    17:00 +9°C° 0 mm 2 mps 744 mmHg 83%
    18:00 +9°C° 0 mm 1 mps 744 mmHg 85%
    19:00 +9°C° 0 mm 1 mps 745 mmHg 87%
    20:00 +8°C° 0 mm 1 mps 745 mmHg 87%
    21:00 +8°C° 0 mm 1 mps 745 mmHg 87%
    22:00 +8°C° 0 mm 1 mps 745 mmHg 87%
    23:00 +7°C° 0 mm 1 mps 745 mmHg 88%

    25 October, Wednesday

    Time Temperature Precipitation Wind Pressure Humidity
    00:00 +7°C° 0 mm 1 mps 745 mmHg 89%
    01:00 +7°C° 0 mm 1 mps 745 mmHg 89%
    02:00 +6°C° 0 mm 1 mps 745 mmHg 89%
    03:00 +6°C° 0 mm 1 mps 745 mmHg 89%
    04:00 +6°C° 0 mm 1 mps 745 mmHg 89%
    05:00 +6°C° 0 mm 1 mps 745 mmHg 88%
    06:00 +6°C° 0 mm 2 mps 745 mmHg 87%
    07:00 +6°C° 0 mm 2 mps 745 mmHg 85%
    08:00 +7°C° 0 mm 2 mps 745 mmHg 80%
    09:00 +9°C° 0 mm 2 mps 745 mmHg 75%
    10:00 +12°C° 0 mm 2 mps 745 mmHg 70%
    11:00 +13°C° 0 mm 2 mps 744 mmHg 69%
    12:00 +14°C° 0 mm 2 mps 744 mmHg 68%
    13:00 +15°C° 0 mm 2 mps 744 mmHg 67%
    14:00 +15°C° 0 mm 2 mps 744 mmHg 71%
    15:00 +14°C° 0 mm 2 mps 743 mmHg 76%
    16:00 +14°C° 0 mm 2 mps 743 mmHg 80%
    17:00 +13°C° 0 mm 2 mps 743 mmHg 84%
    18:00 +13°C° 0 mm 2 mps 744 mmHg 88%
    19:00 +11°C° 0 mm 3 mps 744 mmHg 91%
    20:00 +11°C° 0 mm 3 mps 744 mmHg 91%
    21:00 +11°C° 0 mm 3 mps 744 mmHg 92%
    22:00 +11°C° 0 mm 3 mps 744 mmHg 92%
    23:00 +11°C° 0 mm 3 mps 744 mmHg 92%

    26 October, Thursday

    Time Temperature Precipitation Wind Pressure Humidity
    00:00 +11°C° 0 mm 3 mps 744 mmHg 92%
    01:00 +11°C° 0 mm 3 mps 744 mmHg 92%
    02:00 +11°C° 0 mm 3 mps 744 mmHg 93%
    03:00 +12°C° 0 mm 2 mps 744 mmHg 93%
    04:00 +12°C° 0 mm 2 mps 744 mmHg 94%
    05:00 +12°C° 0 mm 2 mps 744 mmHg 93%
    06:00 +12°C° 0 mm 2 mps 744 mmHg 93%
    07:00 +12°C° 0 mm 2 mps 744 mmHg 92%
    08:00 +13°C° 0 mm 2 mps 744 mmHg 88%
    09:00 +14°C° 0 mm 2 mps 745 mmHg 85%
    10:00 +15°C° 0 mm 2 mps 745 mmHg 81%
    11:00 +14°C° 0 mm 3 mps 744 mmHg 78%
    12:00 +16°C° 0 mm 3 mps 744 mmHg 75%
    13:00 +17°C° 0 mm 3 mps 744 mmHg 71%
    14:00 +16°C° 0 mm 2 mps 744 mmHg 74%
    15:00 +16°C° 0 mm 2 mps 743 mmHg 77%
    16:00 +15°C° 0 mm 2 mps 743 mmHg 79%
    17:00 +14°C° 0 mm 2 mps 743 mmHg 82%
    18:00 +14°C° 0 mm 2 mps 743 mmHg 85%
    19:00 +13°C° 0 mm 2 mps 743 mmHg 88%
    20:00 +13°C° 0 mm 2 mps 743 mmHg 88%
    21:00 +12°C° 0 mm 2 mps 742 mmHg 89%
    22:00 +12°C° 0 mm 2 mps 742 mmHg 90%
    23:00 +11°C° 0 mm 3 mps 742 mmHg 90%

    27 October, Friday

    Time Temperature Precipitation Wind Pressure Humidity
    00:00 +11°C° 0 mm 3 mps 741 mmHg 90%
    01:00 +11°C° 0 mm 3 mps 741 mmHg 90%
    02:00 +11°C° 0 mm 3 mps 740 mmHg 89%
    03:00 +11°C° 0 mm 3 mps 739 mmHg 88%
    04:00 +10°C° 0 mm 4 mps 738 mmHg 88%
    05:00 +10°C° 0 mm 4 mps 738 mmHg 88%
    06:00 +10°C° 0 mm 4 mps 738 mmHg 89%
    07:00 +10°C° 0 mm 4 mps 737 mmHg 89%
    08:00 +11°C° 0 mm 4 mps 737 mmHg 83%
    09:00 +12°C° 0 mm 5 mps 737 mmHg 77%
    10:00 +13°C° 0 mm 5 mps 736 mmHg 72%
    11:00 +14°C° 0 mm 6 mps 736 mmHg 70%
    12:00 +14°C° 0 mm 7 mps 735 mmHg 69%
    13:00 +14°C° 0 mm 7 mps 735 mmHg 67%
    14:00 +12°C° 0.5 mm 7 mps 734 mmHg 72%
    15:00 +13°C° 0.5 mm 6 mps 734 mmHg 76%
    16:00 +11°C° 0.5 mm 6 mps 734 mmHg 80%
    17:00 +10°C° 0.4 mm 5 mps 734 mmHg 81%
    18:00 +9°C° 0.4 mm 5 mps 735 mmHg 82%
    19:00 +8°C° 0.4 mm 4 mps 735 mmHg 83%
    20:00 +7°C° 0 mm 4 mps 735 mmHg 83%
    21:00 +7°C° 0 mm 4 mps 735 mmHg 84%
    22:00 +6°C° 0 mm 4 mps 735 mmHg 84%
    23:00 +7°C° 0 mm 4 mps 735 mmHg 84%
    Show more